Location: Diebersbach
(48.5163°N, 8.0558°E)
Time: 10:37:46
(UTC+00:00)

MSX - Pass Details

Date: 20 June 2021
Orbit: 894 x 907 km, 98.8° (Epoch: 03 August)

Event Time Altitude Azimuth Distance (km) Brightness Sun altitude
Rises 02:10:10 0° 17° (NNE) 3,541 8.5 -9.6°
Reaches altitude 10° 02:12:39 10° 22° (NNE) 2,594 7.7 -9.3°
Maximum altitude 02:18:21 58° 101° (E) 1,043 4.4 -8.7°
Drops below altitude 10° 02:23:59 10° 180° (S) 2,567 5.8 -8.1°
Enters shadow 02:25:46 - 184° (S) 3,252 6.3 -8.0°
